Weather History for Yellowstone, WY

Change the Weather History Date:

Tuesday, March 18, 2014

  Actual Average Record
Temperature  
Mean Temperature 13 °F 24 °F  
Max Temperature 28 °F 38 °F 50 °F (2007)
Min Temperature -2 °F 10 °F -12 °F (2002)
Degree Days  
Heating Degree Days 52 41  
Month to date heating degree days 785 790  
Since 1 July heating degree days 8838 8727  
Cooling Degree Days 0 0  
Month to date cooling degree days 0 0  
Year to date cooling degree days 0 0  
Moisture  
Dew Point 8 °F    
Average Humidity 67    
Maximum Humidity 92    
Minimum Humidity 42    
Precipitation  
Precipitation 0.00 in 0.04 in 0.33 in (2012)
Month to date precipitation 2.45 0.58  
Year to date precipitation 7.53 4.10  
Sea Level Pressure  
Sea Level Pressure 30.10 in    
Wind  
Wind Speed 4 mph (WNW)    
Max Wind Speed 16 mph    
Max Gust Speed 23 mph    
T = Trace of Precipitation, MM = Missing Value Source: NWS Daily Summary

Daily Weather History Graph

Daily Weather History Graph

Search for Another Location

Airport:

Trip Planner

Search our weather history database for the weather conditions in past years. The results will help you decide how hot, cold, wet, or windy it might be!

Date:

Astronomy

Mar. 18, 2014 Rise Set
Actual Time 7:28 AM MDT 7:31 PM MDT
Civil Twilight 6:59 AM MDT 8:00 PM MDT
Nautical Twilight 6:25 AM MDT 8:34 PM MDT
Astronomical Twilight 5:50 AM MDT 9:09 PM MDT
Moon 9:59 PM MDT (3/18) 8:14 AM MDT (3/18)
Length of Visible Light 13h 01m
Length of Day
12h 03m
Waning Gibbous, 96% of the Moon is Illuminated
Mar 18
Waning Gibbous
Mar 23
Last Quarter
Mar 30
New
Apr 7
First Quarter
Apr 15
Full

Hourly Weather History & Observations

Time (MDT) Temp. Windchill Dew Point Humidity Pressure Visibility Wind Dir Wind Speed Gust Speed Precip Events Conditions
12:56 AM 18.0 °F 6.9 °F 12.0 °F 78% 29.87 in - NW 9.2 mph 17.3 mph N/A   Unknown
1:56 AM 17.1 °F 4.3 °F 12.0 °F 81% 29.89 in - NW 11.5 mph 18.4 mph N/A   Unknown
2:56 AM 16.0 °F 4.4 °F 12.0 °F 84% 29.94 in - NW 9.2 mph 19.6 mph N/A   Unknown
3:56 AM 16.0 °F 5.3 °F 12.0 °F 84% 29.94 in - NW 8.1 mph - N/A   Unknown
4:56 AM 16.0 °F - 10.9 °F 81% 29.95 in - Calm Calm - N/A   Unknown
5:56 AM 10.9 °F - 8.1 °F 88% 30.02 in - Calm Calm - N/A   Unknown
6:56 AM 7.0 °F 0.1 °F 3.9 °F 87% 30.08 in - WNW 3.5 mph - N/A   Unknown
7:56 AM 5.0 °F - 1.9 °F 87% 30.12 in - Calm Calm - N/A   Unknown
8:56 AM 12.0 °F - 9.0 °F 88% 30.10 in - Calm Calm - N/A   Unknown
9:56 AM 17.1 °F 10.0 °F 10.9 °F 77% 30.10 in - South 4.6 mph - N/A   Unknown
10:56 AM 18.0 °F 12.7 °F 12.0 °F 78% 30.10 in - SE 3.5 mph - N/A   Unknown
11:56 AM 21.9 °F 14.5 °F 12.0 °F 66% 30.10 in - Variable 5.8 mph - N/A   Unknown
12:56 PM 21.9 °F - 14.0 °F 72% 30.12 in - Calm Calm - N/A   Unknown
1:56 PM 24.1 °F 18.2 °F 15.1 °F 69% 30.09 in - Variable 4.6 mph - N/A   Unknown
2:56 PM 26.1 °F 20.5 °F 9.0 °F 49% 30.08 in - Variable 4.6 mph 18.4 mph N/A   Unknown
3:56 PM 27.0 °F 19.5 °F 10.0 °F 49% 30.07 in - Variable 6.9 mph - N/A   Unknown
4:56 PM 26.1 °F 17.6 °F 6.1 °F 43% 30.09 in - West 8.1 mph 19.6 mph N/A   Unknown
5:56 PM 24.1 °F 12.5 °F 6.1 °F 46% 30.14 in - West 12.7 mph 19.6 mph N/A   Unknown
6:56 PM 23.0 °F 14.7 °F 7.0 °F 50% 30.19 in - WNW 6.9 mph - N/A   Unknown
7:56 PM 19.0 °F 13.9 °F 5.0 °F 54% 30.25 in - Variable 3.5 mph - N/A   Unknown
8:56 PM 12.9 °F 5.2 °F 5.0 °F 71% 30.25 in - WNW 4.6 mph - N/A   Unknown
9:56 PM 10.0 °F 0.4 °F 3.0 °F 73% 30.25 in - WNW 5.8 mph - N/A   Unknown
10:56 PM 3.0 °F - -0.9 °F 84% 30.30 in - Calm Calm - N/A   Unknown
11:56 PM 1.0 °F - -2.9 °F 83% 30.29 in - Calm Calm - N/A   Unknown